Location: Castifao
(42.5040°N, 9.1124°E)
Time: 13:57:00
(UTC+00:00)

Cosmos 1959 Rocket - Pass Details

Date: 23 January 2020
Orbit: 947 x 997 km, 83.0° (Epoch: 22 February)

Event Time Altitude Azimuth Distance (km) Brightness Sun altitude
Rises 17:46:43 0° 181° (S) 3,644 7.7 -15.0°
Reaches altitude 10° 17:49:13 10° 180° (S) 2,694 7.0 -15.5°
Maximum altitude 17:55:22 77° 95° (E) 984 4.4 -16.6°
Drops below altitude 10° 18:01:30 10° 11° (N) 2,685 6.6 -17.7°
Sets 18:03:59 0° 10° (N) 3,631 7.3 -18.2°
